Mountain Home, AR

9:48 AM CDT on August 17, 2017 (GMT -0500)
Baxter County Regional

Weather History for KBPK - February, 2014

Change the Weather History Date:

Sunday, February 2, 2014

  Actual Average (KFLP) Record (KFLP)
Temperature  
Mean Temperature 26 °F -  
Max Temperature 30 °F 47 °F 71 °F (2003)
Min Temperature 18 °F 28 °F 10 °F (2011)
Degree Days  
Heating Degree Days 40    
Moisture  
Dew Point 22 °F    
Average Humidity 83    
Maximum Humidity 100    
Minimum Humidity 69    
Precipitation  
Precipitation 0.16 in - - ()
Sea Level Pressure  
Sea Level Pressure 30.20 in    
Wind  
Wind Speed 6 mph (North)    
Max Wind Speed 8 mph    
Max Gust Speed 21 mph    
Visibility 4 miles    
Events Fog , Snow    
Averages and records for this station are not official NWS values.
T = Trace of Precipitation, MM = Missing Value Source: NWS Daily Summary

Daily Weather History Graph

Daily Weather History Graph

Search for Another Location

Airport or City:

Trip Planner

Search our weather history database for the weather conditions in past years. The results will help you decide how hot, cold, wet, or windy it might be!

Date:

Astronomy

Feb. 02, 2014 Rise Set
Actual Time 7:10 AM CST 5:37 PM CST
Civil Twilight 6:43 AM CST 6:04 PM CST
Nautical Twilight 6:12 AM CST 6:35 PM CST
Astronomical Twilight 5:42 AM CST 7:05 PM CST
Moon 8:44 AM CST (2/2) 9:13 PM CST (2/2)
Length of Visible Light 11h 21m
Length of Day
10h 26m
Waxing Crescent, 11% of the Moon is Illuminated
Feb 2
Waxing Crescent
Feb 6
First Quarter
Feb 14
Full
Feb 22
Last Quarter
Mar 1
New

Hourly Weather History & Observations

Time (CST) Temp. Windchill Dew Point Humidity Pressure Visibility Wind Dir Wind Speed Gust Speed Precip Events Conditions
12:53 AM 30.9 °F 24.3 °F 30.0 °F 96% 30.08 in 4.0 mi NNW 6.9 mph - 0.00 in   Overcast
1:09 AM 30.2 °F 22.6 °F 30.2 °F 100% 30.07 in 5.0 mi North 8.1 mph - N/A   Overcast
1:53 AM 30.0 °F 23.2 °F 28.9 °F 96% 30.09 in 5.0 mi Variable 6.9 mph - N/A   Overcast
2:53 AM 30.0 °F 23.2 °F 28.9 °F 96% 30.12 in 5.0 mi NNW 6.9 mph - N/A   Overcast
3:53 AM 28.9 °F 22.8 °F 25.0 °F 85% 30.15 in 6.0 mi North 5.8 mph - N/A   Overcast
4:53 AM 28.0 °F 21.7 °F 24.1 °F 85% 30.17 in 7.0 mi Variable 5.8 mph - N/A   Overcast
5:53 AM 28.0 °F 21.7 °F 24.1 °F 85% 30.18 in 7.0 mi North 5.8 mph - N/A   Overcast
6:53 AM 28.0 °F 20.8 °F 23.0 °F 81% 30.18 in 8.0 mi North 6.9 mph - N/A   Overcast
7:53 AM 28.0 °F 21.7 °F 23.0 °F 81% 30.24 in 8.0 mi Variable 5.8 mph - N/A   Overcast
8:53 AM 28.0 °F 24.2 °F 23.0 °F 81% 30.26 in 8.0 mi NNW 3.5 mph - N/A   Overcast
9:07 AM 28.4 °F 23.3 °F 21.2 °F 74% 30.23 in 9.0 mi North 4.6 mph - N/A   Overcast
9:22 AM 28.4 °F 22.2 °F 21.2 °F 74% 30.21 in 9.0 mi North 5.8 mph - N/A   Overcast
9:53 AM 27.0 °F 20.5 °F 21.0 °F 78% 30.23 in 2.5 mi Variable 5.8 mph - 0.00 in Snow Light Snow
10:00 AM 26.6 °F 19.1 °F 21.2 °F 80% 30.20 in 1.0 mi NNE 6.9 mph - 0.00 in Snow Light Snow
10:08 AM 26.6 °F 18.2 °F 21.2 °F 80% 30.20 in 0.8 mi NNE 8.1 mph - 0.00 in Snow Light Snow
10:18 AM 26.6 °F 21.2 °F 23.0 °F 86% 30.20 in 0.5 mi Variable 4.6 mph - 0.00 in Fog , Snow Snow
10:28 AM 26.6 °F 20.0 °F 23.0 °F 86% 30.21 in 0.2 mi NNE 5.8 mph - 0.01 in Fog , Snow Snow
10:44 AM 26.6 °F 20.0 °F 23.0 °F 86% 30.21 in 0.2 mi North 5.8 mph - 0.02 in Fog , Snow Heavy Snow
10:53 AM 26.1 °F 18.4 °F 23.0 °F 88% 30.22 in 0.2 mi North 6.9 mph - 0.03 in Fog , Snow Heavy Snow
11:53 AM 26.1 °F 17.6 °F 24.1 °F 92% 30.23 in 0.2 mi North 8.1 mph 17.3 mph 0.07 in Fog , Snow Snow
12:28 PM 26.6 °F 20.0 °F 23.0 °F 86% 30.21 in 0.5 mi North 5.8 mph - 0.03 in Fog , Snow Snow
12:38 PM 26.6 °F 20.0 °F 23.0 °F 86% 30.20 in 0.5 mi North 5.8 mph - 0.03 in Fog , Snow Snow
12:51 PM 26.6 °F 22.6 °F 23.0 °F 86% 30.19 in 0.8 mi Variable 3.5 mph - 0.04 in Snow Light Snow
12:53 PM 27.0 °F 20.5 °F 23.0 °F 85% 30.22 in 0.5 mi Variable 5.8 mph - 0.04 in Fog , Snow Snow
1:20 PM 26.6 °F 20.0 °F 23.0 °F 86% 30.17 in 1.0 mi Variable 5.8 mph - 0.00 in Snow Light Snow
1:40 PM 26.6 °F - 23.0 °F 86% 30.20 in 2.0 mi Calm Calm - 0.01 in Snow Light Snow
1:53 PM 26.1 °F 21.9 °F 21.9 °F 84% 30.23 in 1.8 mi Variable 3.5 mph - 0.01 in Snow Light Snow
2:23 PM 26.6 °F 19.1 °F 21.2 °F 80% 30.17 in 1.2 mi NNE 6.9 mph - 0.01 in Snow Light Snow
2:42 PM 26.6 °F 19.1 °F 21.2 °F 80% 30.16 in 2.0 mi North 6.9 mph 20.7 mph 0.01 in Snow Light Snow
2:53 PM 26.1 °F 19.4 °F 21.0 °F 81% 30.20 in 4.0 mi NNW 5.8 mph - 0.01 in Snow Light Snow
3:48 PM 24.8 °F 16.1 °F 19.4 °F 80% 30.14 in 2.0 mi North 8.1 mph - 0.00 in Snow Light Snow
3:53 PM 25.0 °F 18.1 °F 19.9 °F 81% 30.18 in 2.0 mi North 5.8 mph - 0.00 in Snow Light Snow
4:04 PM 24.8 °F 16.9 °F 19.4 °F 80% 30.15 in 4.0 mi North 6.9 mph - 0.00 in Snow Light Snow
4:19 PM 24.8 °F 19.1 °F 19.4 °F 80% 30.17 in 7.0 mi Variable 4.6 mph - 0.00 in   Overcast
4:53 PM 25.0 °F 20.7 °F 19.0 °F 78% 30.24 in 2.0 mi NW 3.5 mph - 0.00 in Snow Light Snow
5:13 PM 24.8 °F 19.1 °F 19.4 °F 80% 30.19 in 5.0 mi NNE 4.6 mph - 0.00 in Snow Light Snow
5:53 PM 25.0 °F 20.7 °F 19.0 °F 78% 30.24 in 8.0 mi NNW 3.5 mph - 0.00 in   Overcast
6:53 PM 24.1 °F 18.2 °F 18.0 °F 77% 30.23 in 9.0 mi NNW 4.6 mph - N/A   Overcast
7:53 PM 24.1 °F 17.0 °F 15.1 °F 69% 30.24 in 10.0 mi NNE 5.8 mph - N/A   Overcast
8:53 PM 23.0 °F 18.4 °F 16.0 °F 74% 30.25 in 10.0 mi NNW 3.5 mph - N/A   Overcast
9:53 PM 21.9 °F 15.7 °F 15.1 °F 75% 30.28 in 10.0 mi Variable 4.6 mph - N/A   Overcast
10:53 PM 21.0 °F - 14.0 °F 74% 30.27 in 10.0 mi Calm Calm - N/A   Mostly Cloudy
11:53 PM 18.0 °F - 12.0 °F 78% 30.29 in 10.0 mi Calm Calm - N/A   Clear